Location: Maiden
(35.5760°N, 81.2120°W)
Time: 02:21:16
(UTC-04:00)

Vanguard 2 - Pass Details

Date: 10 August 2020
Orbit: 553 x 2937 km, 32.9° (Epoch: 20 September)

Event Time Altitude Azimuth Distance (km) Brightness Sun altitude
Rises 19:50:15 0° 222° (SW) 6,610 12.7 4.8°
Reaches altitude 10° 19:54:49 10° 216° (SW) 5,709 12.3 3.9°
Maximum altitude 20:11:16 46° 151° (SSE) 3,437 10.6 0.7°
Drops below altitude 10° 20:24:52 10° 84° (E) 4,807 11.0 -1.9°
Sets 20:28:18 0° 79° (E) 5,533 11.4 -2.6°
